TimeMST,TemperatureF,Dew PointF,Humidity,Sea Level PressureIn,VisibilityMPH,Wind Direction,Wind SpeedMPH,Gust SpeedMPH,PrecipitationIn,Events,Conditions,WindDirDegrees,DateUTC
12:34 AM,28.4,26.6,93,29.55,3.0,Calm,Calm,-,0.02,Snow,Light Snow,0,2013-01-08 07:34:00
12:51 AM,33.8,30.2,87,29.54,10.0,SSW,6.9,-,0.02,,Overcast,210,2013-01-08 07:51:00
12:53 AM,34.0,30.9,89,29.62,10.0,SSW,8.1,-,0.02,,Overcast,210,2013-01-08 07:53:00
1:26 AM,33.8,30.2,87,29.53,10.0,SW,6.9,-,0.00,Rain,Light Rain,220,2013-01-08 08:26:00
1:53 AM,35.1,30.9,85,29.59,10.0,SSW,11.5,-,0.00,,Overcast,200,2013-01-08 08:53:00
2:53 AM,34.0,30.0,85,29.60,10.0,SW,6.9,-,N/A,,Overcast,230,2013-01-08 09:53:00
3:53 AM,26.1,24.1,92,29.64,10.0,NW,3.5,-,N/A,,Scattered Clouds,310,2013-01-08 10:53:00
4:53 AM,30.0,26.1,85,29.66,10.0,WSW,10.4,-,N/A,,Clear,250,2013-01-08 11:53:00
5:53 AM,27.0,23.0,85,29.70,10.0,West,11.5,-,N/A,,Clear,260,2013-01-08 12:53:00
6:53 AM,26.6,21.2,80,29.61,10.0,West,13.8,-,N/A,,Clear,260,2013-01-08 13:53:00
7:53 AM,28.0,21.9,78,29.75,10.0,West,8.1,-,N/A,,Scattered Clouds,270,2013-01-08 14:53:00
8:53 AM,28.0,23.0,81,29.77,10.0,WSW,13.8,-,N/A,,Scattered Clouds,250,2013-01-08 15:53:00
9:53 AM,33.1,26.1,75,29.79,10.0,West,16.1,-,N/A,,Overcast,270,2013-01-08 16:53:00
10:53 AM,35.1,27.0,72,29.81,10.0,West,18.4,25.3,N/A,,Overcast,260,2013-01-08 17:53:00
11:53 AM,34.0,28.9,82,29.83,10.0,West,16.1,-,N/A,,Mostly Cloudy,270,2013-01-08 18:53:00
12:53 PM,35.1,28.0,76,29.83,10.0,WNW,20.7,31.1,N/A,,Overcast,290,2013-01-08 19:53:00
1:53 PM,33.8,28.4,81,29.79,10.0,West,13.8,23.0,N/A,,Overcast,260,2013-01-08 20:53:00
2:53 PM,33.1,27.0,78,29.88,10.0,West,17.3,24.2,N/A,,Clear,260,2013-01-08 21:53:00
3:53 PM,32.0,27.0,82,29.93,10.0,West,20.7,-,N/A,,Clear,260,2013-01-08 22:53:00
4:53 PM,30.0,25.0,82,29.95,10.0,West,17.3,-,N/A,,Clear,270,2013-01-08 23:53:00
5:53 PM,27.0,21.0,78,29.99,10.0,West,13.8,-,N/A,,Clear,260,2013-01-09 00:53:00
6:53 PM,24.1,19.0,81,30.02,10.0,WSW,12.7,-,N/A,,Clear,250,2013-01-09 01:53:00
7:53 PM,23.0,15.1,72,30.04,10.0,WSW,15.0,-,N/A,,Clear,250,2013-01-09 02:53:00
8:53 PM,21.0,12.9,71,30.04,10.0,West,12.7,-,N/A,,Clear,260,2013-01-09 03:53:00
9:53 PM,17.6,10.4,73,29.97,10.0,WSW,6.9,-,N/A,,Clear,240,2013-01-09 04:53:00
10:53 PM,16.0,10.0,77,30.07,10.0,West,9.2,-,N/A,,Clear,270,2013-01-09 05:53:00
11:53 PM,14.0,10.0,84,30.09,10.0,SSW,5.8,-,N/A,,Clear,210,2013-01-09 06:53:00